[[{"header":{"parameterUnit":"m.s-1","parameterCategory":2,"la1":30.2991,"la2":30.254,"lo1":-89.0895,"lo2":-89.0444,"dy":0.0017,"dx":0.0017,"nx":28,"ny":28,"refTime":"2025-01-16T09:00:00:Z","depth":"0","parameterNumber":2,"parameterNumberName":"U-component_of_CURRENTS"},"data":[0,0,0,0,0,0,0,0,0,0,0,0,0,0,0,0,0,0,0,0,0,0,0,0,0,0,0,0,0,0,0,0,0,0,0,0,0,0,0,0,0,0,0,0,0,0,0,0,0,0,0,0,0,0,0,0,0,0,-0.2665,-0.2667,0,-0.2756,-0.2756,-0.2757,-0.2716,-0.2714,-0.2712,-0.271,-0.2711,-0.2713,-0.2715,0,0,0,0,0,0,0,0,0,0,0,0,0,-0.2472,-0.2476,-0.2665,-0.2667,-0.2668,-0.2755,-0.2756,-0.2758,-0.2716,-0.2714,-0.2711,-0.2709,-0.2711,-0.2713,-0.2716,0,0,0,0,0,0,0,0,0,0,0,0,0,-0.2557,-0.2477,-0.2665,-0.2659,-0.2659,-0.2755,-0.2757,-0.2758,-0.2717,-0.2714,-0.2711,-0.2708,-0.271,-0.2713,-0.2716,-0.2798,0,0,-0.2725,-0.2726,0,0,0,0,0,0,0,0,-0.2552,-0.2564,-0.2659,-0.266,-0.266,-0.2723,-0.2689,-0.2768,-0.2718,-0.2694,-0.271,-0.2706,-0.271,-0.2713,-0.2736,-0.2798,-0.2798,-0.2725,-0.2727,-0.2729,-0.2729,0,0,0,0,0,0,0,-0.2547,-0.256,-0.27,-0.266,-0.2661,-0.2657,-0.2665,-0.2704,-0.2716,-0.2695,-0.2693,-0.2706,-0.2709,-0.2734,-0.2736,-0.2799,-0.2725,-0.2728,-0.273,-0.2731,-0.2919,-0.2922,0,0,0,0,0,0,-0.2542,-0.2555,-0.2697,-0.2702,-0.2599,-0.2663,-0.2672,-0.2705,-0.2717,-0.2717,-0.2709,-0.2704,-0.273,-0.2732,-0.2736,-0.282,-0.2729,-0.2731,-0.2733,-0.2915,-0.2919,-0.2923,0,0,0,0,0,0,-0.2538,-0.2555,-0.2693,-0.263,-0.2647,-0.267,-0.2707,-0.2708,-0.2722,-0.2729,-0.2726,-0.2719,-0.2728,-0.2731,-0.278,-0.2819,-0.2733,-0.2735,-0.2912,-0.2917,-0.2921,-0.2997,0,0,0,0,0,0,-0.2533,-0.2553,-0.2572,-0.2631,-0.2651,-0.2756,-0.271,-0.2712,-0.2736,-0.273,-0.2738,-0.2735,-0.2725,-0.2776,-0.2783,-0.2822,-0.2738,-0.2908,-0.2914,-0.292,-0.2991,-0.3004,-0.3015,0,0,0,0,0,-0.2526,-0.2568,-0.2574,-0.259,-0.2679,-0.2758,-0.2769,-0.2771,-0.274,-0.2767,-0.277,-0.2734,-0.2818,-0.2781,-0.2789,-0.283,-0.2905,-0.2912,-0.2919,-0.2985,-0.3001,-0.3015,0,0,0,0,0,0,-0.2482,-0.257,-0.2576,-0.2639,-0.2696,-0.2751,-0.2775,-0.278,-0.2809,-0.2793,-0.2781,-0.2782,-0.284,-0.2837,-0.2797,-0.2905,-0.2854,-0.2863,-0.2902,-0.2917,-0.2929,-0.2925,-0.274,0,0,0,0,0,-0.2489,-0.2545,-0.262,-0.2666,-0.2698,-0.2738,-0.2766,-0.2778,-0.2813,-0.282,-0.2833,-0.2849,-0.2885,-0.2897,-0.2931,-0.2995,-0.2936,-0.3027,-0.3039,-0.3049,-0.3055,-0.3026,-0.3034,-0.2946,-0.2946,-0.2946,0,0,-0.2477,-0.2537,-0.2562,-0.2661,-0.2699,-0.278,-0.2746,-0.2802,-0.2862,-0.282,-0.2892,-0.2897,-0.2914,-0.2983,-0.3008,-0.2977,-0.3036,-0.3059,-0.3067,-0.3067,-0.3034,-0.3041,-0.3048,-0.2951,-0.295,-0.2949,0,0,-0.2506,-0.2545,-0.261,-0.2676,-0.2757,-0.2798,-0.2817,-0.2889,-0.2907,-0.2989,-0.2969,-0.3002,-0.3063,-0.3084,-0.3099,-0.3208,-0.3107,-0.3212,-0.3265,-0.3237,-0.3242,-0.3247,-0.3134,-0.3128,-0.3212,-0.3212,-0.3212,0,-0.2478,-0.2592,-0.2636,-0.2729,-0.2784,-0.2812,-0.2895,-0.2945,-0.3021,-0.3031,-0.3019,-0.3093,-0.3118,-0.3177,-0.3223,-0.3234,-0.3161,-0.3199,-0.3247,-0.3251,-0.3254,-0.3138,-0.313,-0.3216,-0.3216,-0.3216,-0.3215,0,-0.2575,-0.2666,-0.271,-0.2841,-0.2902,-0.298,-0.3058,-0.3105,-0.3122,-0.3151,-0.3204,-0.3236,-0.3262,-0.3291,-0.3298,-0.3342,-0.326,-0.3264,-0.3196,-0.3267,-0.314,-0.313,-0.3223,-0.3221,-0.322,-0.3219,0,0,-0.2497,-0.2733,-0.2743,-0.2824,-0.2969,-0.3022,-0.3125,-0.3209,-0.3225,-0.3294,-0.3307,-0.341,-0.3377,-0.3396,-0.3395,-0.3394,-0.3362,-0.3344,-0.334,-0.3206,-0.3217,-0.3076,-0.305,-0.3356,-0.3357,-0.3357,-0.31,0,-0.255,-0.2749,-0.2847,-0.2996,-0.3099,-0.3162,-0.3243,-0.3306,-0.3335,-0.3355,-0.3374,-0.3396,-0.343,-0.3418,-0.3436,-0.3383,-0.3348,-0.3426,-0.3192,-0.3184,-0.3031,-0.3041,-0.2935,-0.2692,-0.309,-0.3088,-0.3087,0,-0.2608,-0.2738,-0.2916,-0.3082,-0.3119,-0.3196,-0.3271,-0.3349,-0.3386,-0.3395,-0.3411,-0.3398,-0.3424,-0.343,-0.3367,-0.3401,-0.3325,-0.3275,-0.3264,-0.3103,-0.3028,-0.27,-0.2658,-0.2655,-0.3071,-0.3072,-0.3073,0,-0.2546,-0.2768,-0.2907,-0.2976,-0.317,-0.321,-0.3276,-0.3338,-0.3341,-0.3391,-0.3339,-0.3393,-0.3337,-0.3325,-0.3245,-0.3294,-0.311,-0.3156,-0.294,-0.2925,-0.2777,-0.2749,-0.2687,-0.3091,-0.3092,-0.3092,-0.3093,0,-0.2582,-0.2676,-0.2883,-0.296,-0.3036,-0.3173,-0.3202,-0.327,-0.3288,-0.3222,-0.3325,-0.324,-0.3307,-0.3206,-0.3192,-0.3,-0.3056,-0.293,-0.2863,-0.2796,-0.2774,-0.2718,-0.2761,-0.3083,-0.3085,-0.3087,-0.3088,0,-0.2509,-0.2671,-0.2807,-0.2992,-0.3026,-0.3064,-0.3122,-0.3097,-0.3162,-0.3065,-0.3058,-0.3073,-0.2959,-0.2957,-0.2876,-0.285,-0.2682,-0.2657,-0.2532,-0.2458,-0.23,-0.2351,-0.2179,-0.2122,-0.2393,-0.2388,-0.2384,0,-0.2507,-0.2591,-0.2767,-0.2778,-0.2854,-0.2915,-0.29,-0.3009,-0.2943,-0.2914,-0.2802,-0.2727,-0.262,-0.2462,-0.2431,-0.2329,-0.2401,-0.2162,-0.2287,-0.2255,-0.2264,-0.2318,-0.229,-0.2088,-0.2082,-0.2077,-0.2073,0,-0.2449,-0.2507,-0.2592,-0.2624,-0.2629,-0.2635,-0.2622,-0.2565,-0.2607,-0.2548,-0.2417,-0.2365,-0.2222,-0.2112,-0.2013,-0.1964,-0.2128,-0.2052,-0.2076,-0.2064,-0.2062,-0.1984,-0.2246,-0.2028,-0.2033,-0.2036,-0.2039,-0.204,-0.2328,-0.2345,-0.2415,-0.2415,-0.24,-0.2308,-0.2241,-0.221,-0.2124,-0.2002,-0.2043,-0.1947,-0.1909,-0.1782,-0.1717,-0.1612,-0.1726,-0.1628,-0.1691,-0.1747,-0.172,-0.184,-0.1534,-0.1536,-0.1537,-0.1538,-0.1539,0,-0.2145,-0.217,-0.2174,-0.2141,-0.2006,-0.2093,-0.1988,-0.1888,-0.1735,-0.1711,-0.1637,-0.1594,-0.1484,-0.148,-0.1389,-0.1325,-0.1349,-0.1313,-0.1419,-0.1409,-0.1537,-0.1558,-0.1174,-0.1174,-0.1174,-0.1174,-0.1174,-0.1174,-0.2039,-0.1986,-0.2002,-0.1753,-0.1699,-0.1506,-0.1428,-0.1353,-0.1321,-0.1228,-0.1235,-0.1289,-0.1325,-0.1396,-0.1298,-0.1228,-0.1258,-0.1175,-0.1237,-0.1407,-0.1445,-0.1481,-0.1512,-0.1125,-0.1125,-0.1067,-0.1067,-0.1067]},{"header":{"parameterUnit":"m.s-1","parameterCategory":2,"la1":30.2991,"la2":30.254,"lo1":-89.0895,"lo2":-89.0444,"dy":0.0017,"dx":0.0017,"nx":28,"ny":28,"refTime":"2025-01-16T09:00:00:Z","depth":"0","parameterNumber":3,"parameterNumberName":"V-component_of_CURRENTS"},"data":[0,0,0,0,0,0,0,0,0,0,0,0,0,0,0,0,0,0,0,0,0,0,0,0,0,0,0,0,0,0,0,0,0,0,0,0,0,0,0,0,0,0,0,0,0,0,0,0,0,0,0,0,0,0,0,0,0,0,-0.0717,-0.0716,0,-0.0606,-0.0605,-0.0603,-0.0521,-0.0521,-0.052,-0.052,-0.0344,-0.034,-0.0336,0,0,0,0,0,0,0,0,0,0,0,0,0,-0.0756,-0.0756,-0.0717,-0.0716,-0.0715,-0.0607,-0.0605,-0.0603,-0.0521,-0.0521,-0.052,-0.052,-0.0346,-0.0341,-0.0335,0,0,0,0,0,0,0,0,0,0,0,0,0,-0.0699,-0.0756,-0.0718,-0.0663,-0.0658,-0.0607,-0.0605,-0.0602,-0.0522,-0.0521,-0.052,-0.0519,-0.0347,-0.0341,-0.0335,-0.0309,0,0,-0.0315,-0.0313,0,0,0,0,0,0,0,0,-0.0703,-0.0698,-0.0672,-0.0667,-0.0661,-0.0579,-0.0554,-0.0502,-0.0522,-0.057,-0.052,-0.0519,-0.0419,-0.0407,-0.0384,-0.0301,-0.0294,-0.0315,-0.0311,-0.0308,-0.0306,0,0,0,0,0,0,0,-0.0707,-0.0701,-0.0671,-0.0671,-0.0664,-0.0609,-0.0601,-0.0543,-0.0497,-0.0566,-0.056,-0.0553,-0.0415,-0.0391,-0.038,-0.0291,-0.0315,-0.0309,-0.0305,-0.0303,-0.0141,-0.0141,0,0,0,0,0,0,-0.0732,-0.0706,-0.0674,-0.0668,-0.0683,-0.061,-0.0601,-0.0604,-0.0498,-0.0483,-0.0553,-0.0549,-0.0402,-0.0387,-0.0373,-0.0329,-0.0308,-0.0302,-0.0299,-0.0142,-0.0141,-0.0141,0,0,0,0,0,0,-0.0734,-0.0731,-0.0679,-0.0685,-0.0675,-0.0611,-0.0615,-0.0602,-0.0576,-0.049,-0.0473,-0.054,-0.0401,-0.0382,-0.0318,-0.0322,-0.0299,-0.0294,-0.0142,-0.0142,-0.0141,-0.0245,0,0,0,0,0,0,-0.0736,-0.0733,-0.0741,-0.0688,-0.0676,-0.0652,-0.0615,-0.0601,-0.0573,-0.0567,-0.0473,-0.0456,-0.0399,-0.0328,-0.0312,-0.0312,-0.0289,-0.0143,-0.0142,-0.0141,-0.0242,-0.0248,-0.0253,0,0,0,0,0,-0.0737,-0.0755,-0.0742,-0.0738,-0.0691,-0.0652,-0.0641,-0.059,-0.0574,-0.0563,-0.0499,-0.0459,-0.0311,-0.0323,-0.0304,-0.0303,-0.0143,-0.0142,-0.0141,-0.024,-0.0247,-0.0253,0,0,0,0,0,0,-0.0772,-0.0747,-0.0732,-0.074,-0.0701,-0.0639,-0.0628,-0.0597,-0.0539,-0.0533,-0.0453,-0.0431,-0.0375,-0.0322,-0.0338,-0.0251,-0.022,-0.0215,-0.0301,-0.0307,-0.0312,-0.0324,-0.0283,0,0,0,0,0,-0.0788,-0.0796,-0.0753,-0.0759,-0.0745,-0.0689,-0.0667,-0.0635,-0.058,-0.0554,-0.0491,-0.042,-0.0356,-0.0321,-0.0255,-0.0211,-0.015,-0.0196,-0.0201,-0.0206,-0.0201,-0.0134,-0.0134,-0.0137,-0.0137,-0.0137,0,0,-0.0803,-0.0791,-0.0794,-0.0767,-0.0734,-0.0718,-0.0673,-0.0647,-0.0626,-0.0544,-0.0496,-0.0435,-0.0347,-0.0296,-0.0266,-0.0253,-0.0168,-0.0205,-0.021,-0.0202,-0.0133,-0.0133,-0.0133,-0.0137,-0.0137,-0.0137,0,0,-0.084,-0.0827,-0.0845,-0.0818,-0.0781,-0.0743,-0.0741,-0.0683,-0.0648,-0.0598,-0.0534,-0.0479,-0.0381,-0.0325,-0.0282,-0.0276,-0.0199,-0.0253,-0.0291,-0.0228,-0.0227,-0.0226,-0.0137,-0.0127,-0.0258,-0.0258,-0.0258,0,-0.0858,-0.0877,-0.084,-0.0843,-0.0826,-0.0761,-0.0763,-0.0717,-0.0644,-0.0616,-0.0593,-0.0456,-0.0394,-0.0326,-0.0326,-0.029,-0.023,-0.0282,-0.0237,-0.0235,-0.0232,-0.014,-0.0128,-0.0263,-0.0262,-0.0262,-0.0261,0,-0.0905,-0.0913,-0.0918,-0.0904,-0.0876,-0.0868,-0.0804,-0.077,-0.0723,-0.0674,-0.0599,-0.0513,-0.0435,-0.0409,-0.0364,-0.0313,-0.0268,-0.0256,-0.0231,-0.0239,-0.014,-0.0126,-0.027,-0.0268,-0.0267,-0.0265,0,0,-0.0958,-0.0957,-0.0955,-0.0958,-0.091,-0.089,-0.0854,-0.0801,-0.0769,-0.0698,-0.0652,-0.0559,-0.0517,-0.0465,-0.0404,-0.0349,-0.0282,-0.0302,-0.0296,-0.0229,-0.0115,-0.0085,-0.0065,-0.0268,-0.0266,-0.0265,-0.0051,0,-0.1004,-0.1044,-0.1015,-0.1021,-0.1032,-0.0958,-0.0925,-0.0862,-0.0794,-0.073,-0.0642,-0.057,-0.0535,-0.0496,-0.0443,-0.031,-0.025,-0.0339,-0.0102,-0.0094,-0.0081,-0.0051,-0.0031,0.016,-0.0037,-0.0034,-0.0032,0,-0.1056,-0.1075,-0.1117,-0.1086,-0.1079,-0.1065,-0.0995,-0.0955,-0.0849,-0.0792,-0.0717,-0.0632,-0.053,-0.0508,-0.0305,-0.0362,-0.0254,-0.0157,-0.0146,-0.0072,-0.0038,0.0138,0.0195,0.0328,-0.0009,-0.0011,-0.0013,0,-0.1129,-0.1132,-0.1175,-0.1169,-0.1131,-0.112,-0.108,-0.0986,-0.0926,-0.0831,-0.0764,-0.0651,-0.0554,-0.0428,-0.0237,-0.0264,-0.0002,-0.0013,0.0121,0.0126,0.0215,0.0224,0.0415,0.0117,0.0116,0.0116,0.0115,0,-0.1204,-0.1222,-0.1216,-0.1241,-0.124,-0.1189,-0.1154,-0.1095,-0.0988,-0.0901,-0.0808,-0.0702,-0.0528,-0.0357,-0.0225,0.0009,0.001,0.0135,0.0182,0.0182,0.0185,0.0362,0.0404,0.0124,0.0122,0.012,0.0119,0,-0.1289,-0.1293,-0.1326,-0.1307,-0.1288,-0.1291,-0.1189,-0.1134,-0.1049,-0.0929,-0.089,-0.07,-0.0482,-0.0294,-0.0044,0.0057,0.0345,0.0325,0.0325,0.0366,0.0579,0.0613,0.0865,0.0949,0.0511,0.0513,0.0514,0,-0.1343,-0.1385,-0.138,-0.1363,-0.1356,-0.133,-0.1272,-0.1181,-0.1098,-0.0911,-0.0835,-0.0616,-0.0439,-0.007,0.0142,0.0393,0.0475,0.0556,0.0489,0.0614,0.0688,0.0704,0.0756,0.0588,0.0591,0.0592,0.0594,0,-0.1428,-0.1434,-0.145,-0.1418,-0.1379,-0.1315,-0.1232,-0.1181,-0.104,-0.0939,-0.075,-0.061,-0.0263,0.0028,0.0336,0.0476,0.0646,0.0599,0.0737,0.0775,0.0801,0.0895,0.0441,0.0609,0.0608,0.0607,0.0606,0.0605,-0.1461,-0.1484,-0.1478,-0.1426,-0.1368,-0.126,-0.12,-0.1105,-0.099,-0.0804,-0.0695,-0.0468,-0.0071,0.0359,0.0521,0.0848,0.0805,0.0935,0.0975,0.0989,0.1032,0.0614,0.0813,0.0812,0.0812,0.0812,0.0811,0,-0.1462,-0.1461,-0.1444,-0.1359,-0.1249,-0.1232,-0.111,-0.1029,-0.09,-0.0759,-0.0599,-0.0162,0.0229,0.0581,0.1032,0.1213,0.1241,0.1304,0.1339,0.1382,0.1039,0.1002,0.1239,0.1239,0.1238,0.1238,0.1238,0.1238,-0.1452,-0.1439,-0.1413,-0.1226,-0.1152,-0.1009,-0.0939,-0.0861,-0.0752,-0.0511,-0.0284,-0.0111,0.0389,0.1106,0.1525,0.1565,0.1721,0.1702,0.1795,0.1552,0.152,0.149,0.1467,0.1797,0.1798,0.2122,0.2125,0.2127]}],[{"header":{"parameterUnit":"m.s-1","parameterCategory":2,"la1":30.2991,"la2":30.254,"lo1":-89.0895,"lo2":-89.0444,"dy":0.0017,"dx":0.0017,"nx":28,"ny":28,"refTime":"2025-01-16T09:00:00:Z","depth":"2","parameterNumber":2,"parameterNumberName":"U-component_of_CURRENTS"},"data":[0,0,0,0,0,0,0,0,0,0,0,0,0,0,0,0,0,0,0,0,0,0,0,0,0,0,0,0,0,0,0,0,0,0,0,0,0,0,0,0,0,0,0,0,0,0,0,0,0,0,0,0,0,0,0,0,0,0,-0.1707,-0.1707,0,-0.1722,-0.1722,-0.1722,-0.1738,-0.1739,-0.1739,-0.1739,-0.1697,-0.1695,-0.1694,0,0,0,0,0,0,0,0,0,0,0,0,0,-0.168,-0.1681,-0.1707,-0.1707,-0.1708,-0.1722,-0.1722,-0.1722,-0.1738,-0.1739,-0.1739,-0.1739,-0.1697,-0.1695,-0.1694,0,0,0,0,0,0,0,0,0,0,0,0,0,-0.1693,-0.1681,-0.1707,-0.1718,-0.1719,-0.1722,-0.1722,-0.1722,-0.1738,-0.1739,-0.1739,-0.174,-0.1698,-0.1696,-0.1693,-0.1672,0,0,-0.1687,-0.1686,0,0,0,0,0,0,0,0,-0.1692,-0.1694,-0.1716,-0.1717,-0.1718,-0.1729,-0.1697,-0.1703,-0.1738,-0.173,-0.1739,-0.174,-0.1702,-0.17,-0.1702,-0.167,-0.1668,-0.1687,-0.1686,-0.1685,-0.1684,0,0,0,0,0,0,0,-0.1691,-0.1693,-0.1712,-0.1716,-0.1718,-0.1718,-0.172,-0.1698,-0.1712,-0.1731,-0.1732,-0.1735,-0.1702,-0.1704,-0.1701,-0.1668,-0.1687,-0.1685,-0.1684,-0.1683,-0.1768,-0.1771,0,0,0,0,0,0,-0.1691,-0.1692,-0.1712,-0.1713,-0.1707,-0.1718,-0.172,-0.1725,-0.1714,-0.1713,-0.1734,-0.1736,-0.1707,-0.1703,-0.1699,-0.1778,-0.1685,-0.1683,-0.1682,-0.1764,-0.1768,-0.1772,0,0,0,0,0,0,-0.169,-0.1692,-0.1711,-0.1703,-0.1706,-0.1718,-0.1723,-0.1725,-0.1745,-0.1717,-0.1715,-0.1754,-0.1707,-0.1702,-0.1725,-0.1772,-0.1682,-0.168,-0.176,-0.1765,-0.177,-0.1868,0,0,0,0,0,0,-0.1689,-0.1692,-0.1703,-0.1703,-0.1706,-0.1738,-0.1723,-0.1725,-0.1745,-0.1747,-0.1733,-0.1728,-0.1707,-0.1729,-0.1723,-0.1768,-0.1678,-0.1755,-0.1762,-0.1769,-0.1861,-0.1876,-0.189,0,0,0,0,0,-0.1688,-0.1695,-0.1703,-0.1706,-0.1718,-0.1739,-0.1742,-0.175,-0.1745,-0.1767,-0.1771,-0.173,-0.1768,-0.1729,-0.1722,-0.1767,-0.1752,-0.176,-0.1768,-0.1854,-0.1873,-0.1889,0,0,0,0,0,0,-0.1688,-0.1697,-0.1707,-0.1717,-0.1741,-0.1743,-0.1754,-0.1761,-0.178,-0.178,-0.1756,-0.1754,-0.1798,-0.1774,-0.1733,-0.1819,-0.176,-0.1767,-0.1828,-0.1846,-0.186,-0.1836,-0.1677,0,0,0,0,0,-0.1694,-0.1705,-0.172,-0.1734,-0.1742,-0.1752,-0.1762,-0.1773,-0.1784,-0.1793,-0.1795,-0.1803,-0.1821,-0.1826,-0.1834,-0.1861,-0.181,-0.1896,-0.1911,-0.1923,-0.1905,-0.1864,-0.1871,-0.1798,-0.1798,-0.1798,0,0,-0.17,-0.1705,-0.1714,-0.1736,-0.1746,-0.1785,-0.176,-0.1782,-0.1827,-0.1782,-0.1844,-0.1846,-0.1843,-0.1892,-0.191,-0.1877,-0.1929,-0.1933,-0.1943,-0.1917,-0.1873,-0.1879,-0.1884,-0.1803,-0.1802,-0.1802,0,0,-0.1712,-0.172,-0.1736,-0.1767,-0.1793,-0.1808,-0.1822,-0.1847,-0.1869,-0.1922,-0.1917,-0.195,-0.1972,-0.1989,-0.1995,-0.2091,-0.2007,-0.2106,-0.2151,-0.2114,-0.2117,-0.212,-0.2099,-0.2098,-0.2112,-0.2112,-0.2112,0,-0.172,-0.1752,-0.1747,-0.1783,-0.1817,-0.1827,-0.1872,-0.19,-0.1941,-0.1935,-0.196,-0.1989,-0.2021,-0.2041,-0.2118,-0.212,-0.2078,-0.2079,-0.2126,-0.2127,-0.2128,-0.2105,-0.2103,-0.2118,-0.2117,-0.2116,-0.2116,0,-0.1765,-0.1796,-0.1809,-0.1866,-0.1898,-0.1941,-0.1979,-0.201,-0.2037,-0.204,-0.2067,-0.2105,-0.2105,-0.2157,-0.2182,-0.2213,-0.2177,-0.2145,-0.2067,-0.214,-0.2114,-0.211,-0.2126,-0.2124,-0.2122,-0.2121,0,0,-0.1757,-0.1829,-0.1836,-0.1861,-0.1951,-0.196,-0.2039,-0.2069,-0.2071,-0.2117,-0.2118,-0.2209,-0.2179,-0.2189,-0.2209,-0.2222,-0.2262,-0.2207,-0.2203,-0.216,-0.2177,-0.209,-0.2077,-0.2218,-0.2217,-0.2217,-0.2167,0,-0.18,-0.1866,-0.1905,-0.1975,-0.2009,-0.2051,-0.2097,-0.2117,-0.2151,-0.2158,-0.2156,-0.2179,-0.2201,-0.2222,-0.2229,-0.2272,-0.225,-0.2278,-0.2133,-0.213,-0.202,-0.2069,-0.1923,-0.1858,-0.2162,-0.2162,-0.2161,0,-0.1832,-0.1871,-0.1952,-0.1985,-0.1998,-0.2052,-0.2087,-0.2132,-0.2138,-0.2158,-0.2148,-0.2138,-0.2194,-0.2198,-0.2208,-0.2218,-0.2197,-0.2206,-0.2202,-0.207,-0.2033,-0.183,-0.1838,-0.2154,-0.2154,-0.2155,-0.2155,0,-0.1797,-0.1883,-0.1941,-0.1978,-0.2038,-0.2063,-0.2091,-0.2116,-0.2125,-0.2164,-0.2167,-0.2159,-0.2175,-0.216,-0.2183,-0.2204,-0.2154,-0.2173,-0.2038,-0.2033,-0.1852,-0.1831,-0.2102,-0.2102,-0.2102,-0.2103,-0.2103,0,-0.1808,-0.1846,-0.1927,-0.1954,-0.1961,-0.2029,-0.2047,-0.2063,-0.2109,-0.2081,-0.2148,-0.212,-0.2164,-0.2129,-0.2151,-0.2077,-0.2102,-0.2038,-0.2005,-0.1891,-0.1874,-0.2076,-0.2074,-0.2101,-0.2101,-0.2102,-0.2102,0,-0.1761,-0.1828,-0.1874,-0.1943,-0.1944,-0.1952,-0.2005,-0.201,-0.2081,-0.2069,-0.2082,-0.2099,-0.2078,-0.2068,-0.2054,-0.2018,-0.1986,-0.1916,-0.1792,-0.1745,-0.1908,-0.1912,-0.1819,-0.1816,-0.1812,-0.181,-0.1808,0,-0.1752,-0.1783,-0.1835,-0.1831,-0.187,-0.1903,-0.19,-0.1974,-0.1991,-0.2021,-0.1985,-0.1974,-0.1908,-0.1864,-0.182,-0.1777,-0.1837,-0.1597,-0.1618,-0.1897,-0.1875,-0.1884,-0.1892,-0.1442,-0.1437,-0.1433,-0.1429,0,-0.1726,-0.1757,-0.1771,-0.1756,-0.1763,-0.1765,-0.1785,-0.1787,-0.1849,-0.1851,-0.1805,-0.177,-0.1711,-0.1596,-0.1533,-0.1495,-0.1623,-0.1512,-0.1795,-0.1537,-0.1536,-0.1517,-0.1538,-0.1393,-0.1397,-0.1399,-0.1401,-0.1403,-0.169,-0.168,-0.168,-0.1645,-0.1646,-0.1608,-0.1566,-0.1601,-0.1568,-0.1525,-0.1572,-0.1489,-0.148,-0.1327,-0.1258,-0.1226,-0.1352,-0.1315,-0.133,-0.1348,-0.1313,-0.1307,-0.1116,-0.1118,-0.112,-0.1121,-0.1123,0,-0.1587,-0.1575,-0.1561,-0.1497,-0.1446,-0.1482,-0.1449,-0.1395,-0.131,-0.1305,-0.1262,-0.1126,-0.1042,-0.1055,-0.0947,-0.0937,-0.0953,-0.0904,-0.093,-0.0965,-0.0996,-0.0947,-0.0651,-0.065,-0.0649,-0.0648,0,0,-0.1529,-0.1454,-0.1431,-0.1291,-0.1265,-0.1147,-0.1103,-0.1038,-0.1009,-0.0918,-0.0882,-0.0957,-0.0995,-0.0818,-0.0782,-0.0696,-0.0823,-0.0657,-0.103,-0.1092,-0.1123,-0.1221,-0.1182,0,0,0,0,0]},{"header":{"parameterUnit":"m.s-1","parameterCategory":2,"la1":30.2991,"la2":30.254,"lo1":-89.0895,"lo2":-89.0444,"dy":0.0017,"dx":0.0017,"nx":28,"ny":28,"refTime":"2025-01-16T09:00:00:Z","depth":"2","parameterNumber":3,"parameterNumberName":"V-component_of_CURRENTS"},"data":[0,0,0,0,0,0,0,0,0,0,0,0,0,0,0,0,0,0,0,0,0,0,0,0,0,0,0,0,0,0,0,0,0,0,0,0,0,0,0,0,0,0,0,0,0,0,0,0,0,0,0,0,0,0,0,0,0,0,0.0016,0.0017,0,0.0112,0.0113,0.0114,0.0135,0.0134,0.0134,0.0133,0.0245,0.0249,0.0252,0,0,0,0,0,0,0,0,0,0,0,0,0,-0.0056,-0.0055,0.0016,0.0017,0.0019,0.0112,0.0113,0.0114,0.0135,0.0134,0.0134,0.0133,0.0244,0.0248,0.0253,0,0,0,0,0,0,0,0,0,0,0,0,0,-0.0001,-0.0055,0.0016,0.0041,0.0045,0.0112,0.0113,0.0115,0.0135,0.0134,0.0133,0.0133,0.0243,0.0248,0.0253,0.0302,0,0,0.0269,0.0271,0,0,0,0,0,0,0,0,-0.0004,0.0002,0.0036,0.004,0.0044,0.0112,0.0129,0.0179,0.0135,0.0099,0.0133,0.0132,0.0204,0.0212,0.023,0.0307,0.0312,0.027,0.0273,0.0275,0.0277,0,0,0,0,0,0,0,-0.0008,-0.0002,0.0053,0.0038,0.0042,0.008,0.0086,0.0139,0.0154,0.0102,0.0104,0.0118,0.0206,0.0225,0.0233,0.0314,0.027,0.0274,0.0277,0.0279,0.0437,0.0438,0,0,0,0,0,0,-0.002,-0.0006,0.005,0.0056,0.0019,0.0082,0.0089,0.009,0.0153,0.0163,0.0118,0.0119,0.0216,0.0226,0.0237,0.0282,0.0275,0.028,0.0283,0.0436,0.0438,0.0439,0,0,0,0,0,0,-0.0022,-0.0017,0.0046,0.0029,0.004,0.0084,0.0085,0.0092,0.0099,0.0166,0.0175,0.0117,0.0216,0.0229,0.0278,0.0287,0.0282,0.0287,0.0435,0.0437,0.0438,0.0383,0,0,0,0,0,0,-0.0025,-0.0019,-0.0029,0.0028,0.004,0.0071,0.0086,0.0095,0.0111,0.0111,0.0168,0.0178,0.0216,0.027,0.0283,0.0294,0.0291,0.0434,0.0436,0.0438,0.0383,0.0382,0.0382,0,0,0,0,0,-0.0028,-0.0039,-0.003,-0.0024,0.0026,0.0071,0.0081,0.0109,0.0111,0.0112,0.0155,0.0176,0.0292,0.0275,0.029,0.0303,0.0433,0.0435,0.0438,0.0384,0.0383,0.0382,0,0,0,0,0,0,-0.008,-0.0036,-0.0026,-0.0025,0.0014,0.0075,0.0078,0.0102,0.0137,0.0133,0.019,0.0204,0.0251,0.0289,0.0269,0.0356,0.0366,0.0372,0.032,0.032,0.0319,0.0291,0.0296,0,0,0,0,0,-0.0094,-0.0096,-0.0039,-0.0044,-0.0025,0.0024,0.0043,0.0064,0.0109,0.0122,0.0164,0.0217,0.0278,0.0304,0.0357,0.0404,0.0417,0.0424,0.0423,0.0422,0.0412,0.0428,0.0426,0.0446,0.0446,0.0446,0,0,-0.0122,-0.0094,-0.01,-0.0055,-0.0026,-0.0002,0.0032,0.0054,0.0076,0.0131,0.0162,0.0214,0.029,0.0342,0.0367,0.037,0.0427,0.0425,0.0423,0.0413,0.043,0.0428,0.0426,0.0448,0.0448,0.0447,0,0,-0.0163,-0.0147,-0.0155,-0.0123,-0.0077,-0.0035,-0.0033,0.0024,0.0048,0.0093,0.0144,0.0196,0.0276,0.0334,0.0377,0.0406,0.0421,0.0424,0.0396,0.0412,0.0409,0.0407,0.0425,0.0425,0.0423,0.0422,0.0422,0,-0.0199,-0.0194,-0.0151,-0.0139,-0.0113,-0.0055,-0.0045,-0.0004,0.0059,0.0081,0.0091,0.021,0.0276,0.035,0.0366,0.0402,0.0406,0.0389,0.0406,0.0404,0.0403,0.0423,0.0423,0.042,0.042,0.0421,0.0421,0,-0.0242,-0.0229,-0.0229,-0.0194,-0.0159,-0.0144,-0.0072,-0.0045,-0.0007,0.0033,0.0097,0.0182,0.0247,0.0289,0.0341,0.0379,0.0383,0.0399,0.0397,0.0397,0.0419,0.042,0.0417,0.0418,0.0418,0.0419,0,0,-0.0334,-0.0274,-0.0271,-0.0251,-0.0186,-0.0156,-0.0117,-0.0057,-0.0048,0.0019,0.0038,0.0162,0.0188,0.0239,0.0308,0.0337,0.0351,0.0357,0.0359,0.0354,0.0374,0.0401,0.0406,0.0352,0.0352,0.0352,0.0394,0,-0.0379,-0.0365,-0.0317,-0.0294,-0.0272,-0.0201,-0.0169,-0.011,-0.0067,-0.0038,0.0057,0.0099,0.0177,0.0197,0.0242,0.0323,0.0351,0.0338,0.0394,0.0396,0.0402,0.0407,0.0382,0.0418,0.0395,0.0395,0.0396,0,-0.0433,-0.0403,-0.0398,-0.0323,-0.0311,-0.0296,-0.0238,-0.0201,-0.0139,-0.0112,-0.0061,-0.0003,0.0082,0.0125,0.0245,0.0224,0.0293,0.035,0.0353,0.0394,0.0425,0.0417,0.0421,0.0398,0.0398,0.0398,0.0398,0,-0.0506,-0.0451,-0.0447,-0.0428,-0.0351,-0.0338,-0.0296,-0.0238,-0.022,-0.0175,-0.0178,-0.0081,-0.0032,0.0054,0.0205,0.0206,0.0315,0.0332,0.0422,0.0425,0.0425,0.0428,0.0394,0.0394,0.0393,0.0393,0.0393,0,-0.056,-0.0557,-0.0487,-0.0485,-0.0469,-0.04,-0.0407,-0.0351,-0.0324,-0.0311,-0.0231,-0.02,-0.0054,0.0042,0.016,0.0303,0.0284,0.0413,0.0435,0.0408,0.0409,0.041,0.0412,0.0395,0.0395,0.0394,0.0394,0,-0.0646,-0.0612,-0.0593,-0.0524,-0.0507,-0.0497,-0.0465,-0.0477,-0.044,-0.0426,-0.0417,-0.0297,-0.0167,-0.0015,0.0145,0.0252,0.0378,0.0434,0.04,0.0417,0.0483,0.0481,0.0513,0.0515,0.0516,0.0517,0.0517,0,-0.0692,-0.0704,-0.0632,-0.0627,-0.0604,-0.0592,-0.0593,-0.054,-0.0544,-0.0468,-0.0456,-0.0339,-0.0225,0.0014,0.0204,0.0389,0.0411,0.0475,0.0484,0.0476,0.0494,0.0491,0.0488,0.0465,0.0466,0.0466,0.0466,0,-0.0773,-0.0761,-0.0727,-0.0706,-0.0701,-0.069,-0.0675,-0.0688,-0.0621,-0.0597,-0.05,-0.0408,-0.0176,0.0037,0.0273,0.0384,0.0439,0.0485,0.0478,0.0443,0.0435,0.0452,0.0449,0.0468,0.0468,0.0468,0.0468,0.0467,-0.0837,-0.0824,-0.0783,-0.0757,-0.0759,-0.0748,-0.0732,-0.0719,-0.0685,-0.0591,-0.0516,-0.0357,-0.017,0.017,0.0334,0.0481,0.0483,0.0529,0.0526,0.0523,0.0514,0.0509,0.0554,0.0554,0.0555,0.0555,0.0555,0,-0.0855,-0.0846,-0.084,-0.0786,-0.0784,-0.0771,-0.0753,-0.072,-0.0656,-0.0577,-0.047,-0.0252,-0.003,0.0163,0.0397,0.0537,0.0524,0.0558,0.0514,0.0511,0.0509,0.0497,0.0534,0.0534,0.0534,0.0535,0,0,-0.0871,-0.0854,-0.0823,-0.0793,-0.078,-0.0743,-0.0717,-0.0659,-0.0588,-0.0486,-0.0381,-0.0243,-0.0016,0.0147,0.0314,0.0434,0.0437,0.0442,0.0445,0.037,0.0366,0.0477,0.0454,0,0,0,0,0]}],[{"header":{"parameterUnit":"m.s-1","parameterCategory":2,"la1":30.2991,"la2":30.254,"lo1":-89.0895,"lo2":-89.0444,"dy":0.0017,"dx":0.0017,"nx":28,"ny":28,"refTime":"2025-01-16T09:00:00:Z","depth":"4","parameterNumber":2,"parameterNumberName":"U-component_of_CURRENTS"},"data":[0,0,0,0,0,0,0,0,0,0,0,0,0,0,0,0,0,0,0,0,0,0,0,0,0,0,0,0,0,0,0,0,0,0,0,0,0,0,0,0,0,0,0,0,0,0,0,0,0,0,0,0,0,0,0,0,0,0,-0.0583,-0.0583,0,-0.0599,-0.0599,-0.0599,-0.0606,-0.0606,-0.0606,-0.0607,-0.0619,-0.0619,-0.0619,0,0,0,0,0,0,0,0,0,0,0,0,0,-0.055,-0.055,-0.0583,-0.0583,-0.0584,-0.0599,-0.0599,-0.0599,-0.0606,-0.0606,-0.0606,-0.0607,-0.0619,-0.0619,-0.0619,0,0,0,0,0,0,0,0,0,0,0,0,0,-0.0562,-0.0551,-0.0583,-0.0591,-0.0592,-0.0599,-0.0599,-0.0599,-0.0606,-0.0606,-0.0607,-0.0607,-0.0619,-0.0619,-0.0619,-0.0613,0,0,-0.062,-0.062,0,0,0,0,0,0,0,0,-0.0562,-0.0563,-0.0589,-0.0591,-0.0592,-0.0604,-0.0593,-0.0605,-0.0606,-0.0597,-0.0607,-0.0607,-0.0615,-0.0616,-0.0614,-0.0613,-0.0614,-0.062,-0.062,-0.062,-0.062,0,0,0,0,0,0,0,-0.0561,-0.0562,-0.0586,-0.059,-0.0592,-0.0592,-0.0594,-0.0595,-0.0601,-0.0598,-0.0599,-0.0606,-0.0616,-0.0613,-0.0614,-0.0614,-0.062,-0.062,-0.062,-0.062,-0.0668,-0.0669,0,0,0,0,0,0,-0.0565,-0.0562,-0.0586,-0.0587,-0.0581,-0.0593,-0.0595,-0.0597,-0.0602,-0.0604,-0.0606,-0.0607,-0.0613,-0.0614,-0.0615,-0.0671,-0.062,-0.062,-0.062,-0.0667,-0.0668,-0.0669,0,0,0,0,0,0,-0.0564,-0.0567,-0.0585,-0.0577,-0.058,-0.0593,-0.0596,-0.0597,-0.0604,-0.0608,-0.061,-0.0613,-0.0613,-0.0614,-0.0626,-0.0669,-0.062,-0.062,-0.0665,-0.0667,-0.0669,-0.0742,0,0,0,0,0,0,-0.0563,-0.0566,-0.0566,-0.0578,-0.0581,-0.0598,-0.0596,-0.0597,-0.0609,-0.061,-0.0614,-0.0615,-0.0614,-0.0626,-0.0627,-0.0668,-0.062,-0.0664,-0.0666,-0.0668,-0.0738,-0.0746,-0.0753,0,0,0,0,0,-0.0562,-0.0562,-0.0566,-0.0569,-0.0581,-0.0598,-0.06,-0.0608,-0.0609,-0.0615,-0.062,-0.0616,-0.0641,-0.0627,-0.0627,-0.067,-0.0663,-0.0666,-0.0668,-0.0735,-0.0745,-0.0753,0,0,0,0,0,0,-0.0552,-0.0564,-0.0568,-0.0573,-0.0589,-0.0601,-0.0606,-0.0612,-0.0619,-0.0622,-0.0621,-0.0623,-0.0654,-0.0644,-0.0628,-0.0689,-0.0655,-0.0658,-0.0706,-0.0715,-0.0722,-0.0741,-0.0621,0,0,0,0,0,-0.055,-0.055,-0.0569,-0.0574,-0.0582,-0.0595,-0.0602,-0.0611,-0.0621,-0.0625,-0.063,-0.0641,-0.0663,-0.0673,-0.0681,-0.0706,-0.071,-0.0736,-0.0743,-0.075,-0.0765,-0.0799,-0.0812,-0.0678,-0.0678,-0.0678,0,0,-0.055,-0.0555,-0.0556,-0.0571,-0.0582,-0.0598,-0.0599,-0.0616,-0.0641,-0.0625,-0.0653,-0.0662,-0.0673,-0.0709,-0.0723,-0.0708,-0.079,-0.0753,-0.0759,-0.0771,-0.0803,-0.0817,-0.0828,-0.068,-0.068,-0.0679,0,0,-0.0549,-0.0554,-0.0555,-0.0569,-0.059,-0.0603,-0.0611,-0.0631,-0.0652,-0.0674,-0.0685,-0.0722,-0.0728,-0.0768,-0.0783,-0.0834,-0.0825,-0.0832,-0.0891,-0.0924,-0.0936,-0.0946,-0.0969,-0.0981,-0.084,-0.084,-0.084,0,-0.055,-0.0552,-0.0561,-0.0571,-0.059,-0.0607,-0.0628,-0.0651,-0.0675,-0.0713,-0.069,-0.0759,-0.0765,-0.0847,-0.0868,-0.0856,-0.086,-0.0858,-0.0936,-0.0946,-0.0955,-0.0976,-0.0988,-0.0844,-0.0843,-0.0843,-0.0843,0,-0.0549,-0.0557,-0.0562,-0.058,-0.0606,-0.0622,-0.0665,-0.07,-0.0722,-0.0754,-0.0829,-0.0843,-0.0892,-0.0906,-0.09,-0.0987,-0.0964,-0.0939,-0.0915,-0.0973,-0.0991,-0.1003,-0.0849,-0.0848,-0.0847,-0.0846,0,0,-0.0535,-0.0556,-0.0559,-0.0582,-0.0614,-0.0643,-0.0699,-0.0768,-0.0828,-0.0856,-0.0932,-0.0986,-0.1005,-0.1025,-0.1038,-0.1073,-0.1142,-0.1036,-0.1036,-0.1064,-0.1209,-0.1094,-0.1095,-0.1125,-0.1127,-0.1129,-0.1196,0,-0.0533,-0.0548,-0.057,-0.0613,-0.063,-0.0685,-0.0747,-0.0819,-0.0871,-0.0945,-0.1003,-0.1064,-0.1048,-0.1081,-0.1118,-0.1135,-0.1174,-0.1126,-0.1145,-0.1146,-0.1041,-0.1105,-0.1136,-0.1204,-0.1207,-0.1209,-0.121,0,-0.0525,-0.0537,-0.0564,-0.0647,-0.0668,-0.0709,-0.083,-0.0884,-0.0998,-0.1048,-0.1124,-0.115,-0.1237,-0.119,-0.127,-0.1235,-0.1234,-0.1238,-0.1239,-0.1116,-0.1052,-0.1134,-0.123,-0.1229,-0.1227,-0.1226,-0.1224,0,-0.0499,-0.0549,-0.0572,-0.059,-0.0674,-0.0735,-0.08,-0.0917,-0.0998,-0.111,-0.1168,-0.1256,-0.1301,-0.1325,-0.1324,-0.1305,-0.1379,-0.1351,-0.1256,-0.1248,-0.1298,-0.1286,-0.1408,-0.1408,-0.1408,-0.1408,-0.1408,0,-0.0477,-0.0507,-0.0568,-0.0576,-0.0671,-0.0732,-0.0855,-0.0936,-0.1057,-0.1148,-0.1213,-0.1279,-0.1332,-0.1368,-0.1361,-0.1337,-0.1411,-0.1285,-0.1264,-0.1326,-0.1316,-0.1306,-0.1293,-0.141,-0.141,-0.1409,-0.1409,0,-0.0441,-0.0465,-0.0514,-0.0604,-0.0651,-0.072,-0.089,-0.098,-0.1079,-0.1191,-0.1227,-0.1323,-0.1355,-0.1385,-0.1423,-0.1373,-0.1368,-0.1338,-0.1409,-0.1388,-0.1211,-0.1201,-0.126,-0.1257,-0.1254,-0.1252,-0.125,0,-0.0424,-0.0425,-0.0526,-0.0594,-0.0642,-0.0761,-0.0859,-0.0983,-0.1063,-0.12,-0.1239,-0.1309,-0.1353,-0.1322,-0.1351,-0.134,-0.1311,-0.131,-0.1263,-0.1225,-0.12,-0.1194,-0.1189,-0.1245,-0.1245,-0.1244,-0.1243,0,-0.0404,-0.0432,-0.0484,-0.0596,-0.0701,-0.0812,-0.0933,-0.0979,-0.1101,-0.1199,-0.1223,-0.1231,-0.1259,-0.126,-0.125,-0.124,-0.1315,-0.128,-0.1286,-0.1242,-0.1207,-0.1184,-0.1182,-0.1233,-0.1235,-0.1236,-0.1236,0,-0.0412,-0.045,-0.052,-0.0631,-0.0748,-0.0821,-0.0889,-0.0966,-0.1038,-0.1144,-0.1145,-0.1194,-0.125,-0.1208,-0.1204,-0.1177,-0.1158,-0.112,-0.1134,-0.1145,-0.1069,-0.1006,-0.0971,0,0,0,0,0,-0.0425,-0.0475,-0.057,-0.0671,-0.0771,-0.0822,-0.0935,-0.0986,-0.1067,-0.1056,-0.1093,-0.1102,-0.1086,-0.1112,-0.1058,-0.1156,-0.1168,-0.109,-0.1134,-0.1179,-0.119,-0.1108,0,0,0,0,0,0,-0.0443,-0.0522,-0.0562,-0.0676,-0.0732,-0.0823,-0.087,-0.0918,-0.091,-0.0984,-0.0976,-0.1031,-0.1029,-0.1094,-0.1033,-0.104,-0.1044,-0.1119,-0.1116,-0.1172,-0.1183,-0.1192,-0.1111,0,0,0,0,0]},{"header":{"parameterUnit":"m.s-1","parameterCategory":2,"la1":30.2991,"la2":30.254,"lo1":-89.0895,"lo2":-89.0444,"dy":0.0017,"dx":0.0017,"nx":28,"ny":28,"refTime":"2025-01-16T09:00:00:Z","depth":"4","parameterNumber":3,"parameterNumberName":"V-component_of_CURRENTS"},"data":[0,0,0,0,0,0,0,0,0,0,0,0,0,0,0,0,0,0,0,0,0,0,0,0,0,0,0,0,0,0,0,0,0,0,0,0,0,0,0,0,0,0,0,0,0,0,0,0,0,0,0,0,0,0,0,0,0,0,0.0133,0.0134,0,0.0152,0.0152,0.0152,0.0182,0.0183,0.0183,0.0184,0.02,0.02,0.0199,0,0,0,0,0,0,0,0,0,0,0,0,0,0.0141,0.0141,0.0133,0.0134,0.0134,0.0152,0.0152,0.0152,0.0182,0.0183,0.0183,0.0184,0.02,0.02,0.0199,0,0,0,0,0,0,0,0,0,0,0,0,0,0.0145,0.014,0.0133,0.0152,0.0154,0.0152,0.0152,0.0152,0.0182,0.0183,0.0184,0.0185,0.02,0.02,0.0199,0.0179,0,0,0.0199,0.0198,0,0,0,0,0,0,0,0,0.0145,0.0145,0.0149,0.0151,0.0153,0.0166,0.0161,0.0161,0.0182,0.017,0.0184,0.0185,0.0188,0.0189,0.0189,0.0179,0.018,0.0199,0.0198,0.0198,0.0198,0,0,0,0,0,0,0,0.0145,0.0144,0.014,0.0149,0.0151,0.0165,0.0166,0.0161,0.0173,0.0171,0.0174,0.0177,0.0189,0.0189,0.019,0.018,0.0199,0.0198,0.0198,0.0198,0.0157,0.0156,0,0,0,0,0,0,0.0142,0.0144,0.0139,0.014,0.0152,0.0164,0.0166,0.016,0.0173,0.0176,0.0176,0.0178,0.0189,0.019,0.019,0.0178,0.0198,0.0198,0.0198,0.0158,0.0156,0.0155,0,0,0,0,0,0,0.0142,0.0141,0.0138,0.0144,0.0145,0.0163,0.0157,0.016,0.0165,0.0177,0.018,0.0178,0.019,0.0191,0.0177,0.0178,0.0198,0.0198,0.0159,0.0157,0.0156,0.0145,0,0,0,0,0,0,0.0142,0.0141,0.0139,0.0143,0.0144,0.0131,0.0156,0.016,0.0166,0.0169,0.0179,0.0182,0.0191,0.0177,0.0177,0.0178,0.0197,0.016,0.0158,0.0156,0.0146,0.0143,0.0141,0,0,0,0,0,0.0142,0.0132,0.0139,0.0139,0.014,0.013,0.0131,0.0148,0.0165,0.0157,0.0163,0.0182,0.0166,0.0176,0.0176,0.0177,0.0161,0.0159,0.0157,0.0148,0.0144,0.0141,0,0,0,0,0,0,0.0132,0.0134,0.0142,0.0132,0.013,0.0136,0.0135,0.0145,0.0144,0.015,0.0165,0.0166,0.0157,0.0159,0.017,0.0158,0.0168,0.0166,0.0162,0.0158,0.0155,0.0159,0.0197,0,0,0,0,0,0.0128,0.0124,0.0124,0.0117,0.0116,0.0125,0.0126,0.0134,0.0134,0.0136,0.0142,0.0146,0.0145,0.0146,0.0142,0.0131,0.0151,0.0131,0.0129,0.0126,0.0127,0.0162,0.0164,0.0149,0.0149,0.0149,0,0,0.0123,0.0124,0.0122,0.0115,0.0118,0.01,0.0128,0.0123,0.0111,0.0136,0.0121,0.0133,0.0138,0.0128,0.0125,0.0133,0.0137,0.0123,0.0122,0.0124,0.016,0.0162,0.0164,0.0147,0.0147,0.0148,0,0,0.0105,0.0109,0.0098,0.0088,0.0088,0.0087,0.0084,0.0084,0.009,0.0071,0.0094,0.0107,0.0089,0.0109,0.0113,0.0088,0.0119,0.0084,0.0077,0.0111,0.0113,0.0116,0.0134,0.0138,0.0085,0.0085,0.0085,0,0.01,0.0081,0.0092,0.0072,0.0062,0.0077,0.0053,0.0053,0.0049,0.0056,0.006,0.0071,0.0083,0.0094,0.0088,0.0085,0.0101,0.0094,0.011,0.0113,0.0115,0.0134,0.0139,0.0085,0.0085,0.0085,0.0085,0,0.0066,0.005,0.004,0.0019,0.0008,-0.0011,-0.0013,-0.0016,-0.0008,0.0001,0.0012,0.0032,0.0046,0.0053,0.0062,0.0087,0.0091,0.0103,0.0126,0.0117,0.0136,0.0141,0.0083,0.0084,0.0084,0.0084,0,0,0.0055,0.0023,0.0019,0.0,-0.0022,-0.0036,-0.0054,-0.006,-0.0061,-0.0049,-0.0043,-0.0021,0.0013,0.002,0.005,0.0083,0.0118,0.0099,0.0101,0.0128,0.0182,0.0169,0.0173,0.0137,0.0138,0.0138,0.0185,0,0.0026,-0.0023,-0.003,-0.0077,-0.0103,-0.01,-0.012,-0.0119,-0.011,-0.0103,-0.0052,-0.0043,-0.0007,0.0007,0.0049,0.0096,0.0131,0.0103,0.0177,0.0178,0.0178,0.0179,0.0141,0.0189,0.0191,0.0191,0.0192,0,-0.0004,-0.0033,-0.0085,-0.0122,-0.0131,-0.0158,-0.0173,-0.0185,-0.0164,-0.0152,-0.0114,-0.0083,-0.0029,-0.0001,0.0094,0.0073,0.0126,0.0167,0.017,0.0167,0.0175,0.0201,0.0202,0.0201,0.02,0.02,0.0199,0,-0.0016,-0.0068,-0.011,-0.0129,-0.0171,-0.0184,-0.0198,-0.0194,-0.0204,-0.0173,-0.0174,-0.0104,-0.0074,0.0006,0.0093,0.0093,0.0193,0.0204,0.0243,0.0242,0.0247,0.0245,0.0275,0.0275,0.0274,0.0274,0.0274,0,-0.0048,-0.0076,-0.012,-0.0147,-0.0192,-0.0203,-0.0237,-0.0234,-0.0235,-0.0245,-0.0192,-0.0178,-0.0069,-0.0003,0.0081,0.0175,0.0188,0.0243,0.0257,0.0238,0.0233,0.0251,0.0247,0.0276,0.0276,0.0275,0.0275,0,-0.005,-0.0083,-0.013,-0.0182,-0.0202,-0.0227,-0.0277,-0.0301,-0.0288,-0.0299,-0.0293,-0.023,-0.0139,-0.0037,0.0092,0.0152,0.0247,0.0279,0.0239,0.0251,0.0274,0.0269,0.032,0.032,0.032,0.032,0.032,0,-0.0059,-0.0085,-0.0154,-0.02,-0.0227,-0.0272,-0.0313,-0.0323,-0.0345,-0.0327,-0.0332,-0.0257,-0.0201,-0.0031,0.0081,0.0229,0.0255,0.0294,0.0297,0.0271,0.0281,0.0276,0.0271,0.032,0.032,0.032,0.032,0,-0.0074,-0.0091,-0.0135,-0.0232,-0.0291,-0.0346,-0.0393,-0.0408,-0.0411,-0.041,-0.0356,-0.027,-0.017,-0.0033,0.008,0.0191,0.0262,0.0295,0.0296,0.0298,0.0272,0.028,0.0276,0.032,0.032,0.032,0.032,0,-0.0077,-0.0112,-0.0184,-0.0272,-0.0346,-0.0402,-0.0415,-0.0435,-0.0445,-0.0413,-0.039,-0.0276,-0.0206,-0.0052,0.0055,0.0155,0.0182,0.0212,0.0218,0.0219,0.0177,0.0128,0.0146,0,0,0,0,0,-0.0091,-0.0151,-0.0233,-0.0326,-0.0396,-0.0434,-0.0476,-0.0478,-0.0471,-0.0439,-0.0413,-0.0314,-0.0152,-0.0077,0.0023,0.005,0.0192,0.0168,0.0227,0.032,0.032,0.0287,0,0,0,0,0,0,-0.011,-0.0177,-0.0238,-0.0359,-0.0421,-0.0489,-0.0505,-0.0493,-0.0464,-0.0437,-0.0344,-0.0302,-0.0138,-0.0209,0.0021,0.0051,0.01,0.0244,0.0246,0.032,0.032,0.032,0.0286,0,0,0,0,0]}]]